KC5TIL Weather Reports


Display with metric or nautical units.
time (UTC)temp
F
wind
direction
speed
MPH
gust
MPH
rain 1hr
in
rain 24hr
in
rain mn
in
humidity
%
barometer
mb
20260508163200 72 67 0.0 2.0 0.00 0.00 0.00 68 1014.5
20260508162655 72 130 1.0 2.0 0.00 0.00 0.00 67 1014.7
20260508162153 72 165 1.0 2.0 0.00 0.00 0.00 68 1014.7
20260508161650 70 63 1.0 3.0 0.00 0.00 0.00 69 1014.8
20260508161147 70 131 1.0 5.0 0.00 0.00 0.00 70 1015.1
20260508160645 69 141 1.0 2.0 0.00 0.00 0.00 71 1015.2
20260508160143 69 134 2.0 2.0 0.00 0.00 0.00 72 1015.2
20260508155640 68 127 2.0 3.0 0.00 0.00 0.00 72 1015.3
20260508155136 67 132 1.0 1.0 0.00 0.00 0.00 74 1015.4
20260508154634 67 121 1.0 2.0 0.00 0.00 0.00 73 1015.5
20260508154130 67 121 1.0 5.0 0.00 0.00 0.00 74 1015.6
20260508153627 67 175 1.0 2.0 0.00 0.00 0.00 74 1015.7
20260508153124 67 117 0.0 1.0 0.00 0.00 0.00 74 1015.5
20260508152621 67 177 1.0 3.0 0.00 0.00 0.00 73 1015.8
20260508152116 67 168 1.0 3.0 0.00 0.00 0.00 73 1015.8
20260508151613 67 134 1.0 2.0 0.00 0.00 0.00 73 1015.8
20260508151110 67 144 1.0 3.0 0.00 0.00 0.00 73 1015.9
20260508150607 67 150 1.0 2.0 0.00 0.00 0.00 73 1015.8
20260508145600 67 155 0.0 1.0 0.00 0.00 0.00 72 1016.0
20260508145056 68 131 0.0 1.0 0.00 0.00 0.00 72 1015.6
20260508144554 67 123 0.0 1.0 0.00 0.00 0.00 72 1015.6
20260508144051 67 137 0.0 2.0 0.00 0.00 0.00 72 1016.0
20260508143548 67 123 0.0 2.0 0.00 0.00 0.00 72 1016.0
20260508143045 68 146 1.0 1.0 0.00 0.00 0.00 71 1015.8
20260508142542 68 119 1.0 2.0 0.00 0.00 0.00 72 1015.8
20260508142038 68 149 1.0 2.0 0.00 0.00 0.00 71 1016.0
20260508141535 69 145 1.0 3.0 0.00 0.00 0.00 69 1015.9
20260508141033 70 112 0.0 2.0 0.00 0.00 0.00 67 1016.0
20260508140530 69 124 0.0 1.0 0.00 0.00 0.00 68 1016.0
20260508140026 69 88 0.0 1.0 0.00 0.00 0.00 70 1016.1
20260508135522 68 82 2.0 3.0 0.00 0.00 0.00 70 1016.3
20260508135018 68 125 0.0 2.0 0.00 0.00 0.00 70 1016.3
20260508134515 67 131 1.0 2.0 0.00 0.00 0.00 71 1016.2
20260508134012 67 144 0.0 1.0 0.00 0.00 0.00 72 1016.3
20260508133509 68 125 0.0 2.0 0.00 0.00 0.00 72 1016.3
20260508133006 67 112 0.0 2.0 0.00 0.00 0.00 72 1016.3
20260508132504 67 119 1.0 2.0 0.00 0.00 0.00 72 1015.9
20260508132000 67 105 1.0 2.0 0.00 0.00 0.00 73 1015.9
20260508131455 66 126 1.0 2.0 0.00 0.00 0.00 74 1015.8
20260508130952 66 109 0.0 1.0 0.00 0.00 0.00 77 1016.1
20260508130450 66 77 1.0 1.0 0.00 0.00 0.00 76 1016.4
20260508125945 66 95 0.0 1.0 0.00 0.00 0.00 77 1016.3
20260508125441 66 86 0.0 2.0 0.00 0.00 0.00 76 1016.4
20260508124939 66 109 0.0 1.0 0.00 0.00 0.00 76 1016.5
20260508124437 65 141 1.0 1.0 0.00 0.00 0.00 76 1016.7
20260508123934 65 104 0.0 0.0 0.00 0.00 0.00 78 1016.5
20260508123433 64 113 0.0 0.0 0.00 0.00 0.00 80 1016.4
20260508122929 63 105 0.0 0.0 0.00 0.00 0.00 82 1016.4
20260508122426 62 105 0.0 1.0 0.00 0.00 0.00 83 1016.6
20260508121923 60 105 0.0 0.0 0.00 0.00 0.00 88 1016.7
20260508121421 60 89 1.0 1.0 0.00 0.00 0.00 89 1016.5
20260508120919 60 119 0.0 0.0 0.00 0.00 0.00 88 1016.1
20260508120416 60 115 0.0 1.0 0.00 0.00 0.00 88 1016.2
20260508115914 59 118 0.0 0.0 0.00 0.00 0.00 88 1016.5
20260508115412 59 129 0.0 0.0 0.00 0.00 0.00 89 1016.4
20260508114908 59 125 0.0 0.0 0.00 0.00 0.00 90 1016.2
20260508114404 59 119 0.0 0.0 0.00 0.00 0.00 90 1016.3
20260508113901 59 118 0.0 0.0 0.00 0.00 0.00 90 1016.3
20260508113359 59 120 0.0 0.0 0.00 0.00 0.00 89 1016.5
20260508112856 59 119 0.0 0.0 0.00 0.00 0.00 89 1016.5
20260508112353 59 119 0.0 0.0 0.00 0.00 0.00 88 1016.3
20260508111849 60 127 0.0 0.0 0.00 0.00 0.00 88 1016.5
20260508111346 59 136 0.0 0.0 0.00 0.00 0.00 88 1016.4
20260508110843 60 117 0.0 0.0 0.00 0.00 0.00 88 1016.4
20260508110341 60 112 0.0 0.0 0.00 0.00 0.00 88 1016.4
20260508105841 60 116 0.0 0.0 0.00 0.00 0.00 86 1016.4
20260508105338 61 119 0.0 0.0 0.00 0.00 0.00 86 1016.6
20260508104835 61 345 1.0 2.0 0.00 0.00 0.00 86 1016.7
20260508104331 61 115 0.0 0.0 0.00 0.00 0.00 86 1016.3
20260508103829 61 119 0.0 1.0 0.00 0.00 0.00 85 1016.1
20260508103326 61 125 0.0 0.0 0.00 0.00 0.00 85 1016.1
20260508102823 61 125 0.0 0.0 0.00 0.00 0.00 86 1016.2
20260508102321 61 85 1.0 1.0 0.00 0.00 0.00 86 1015.9
20260508101818 61 132 0.0 0.0 0.00 0.00 0.00 86 1015.9
20260508101316 61 124 0.0 1.0 0.00 0.00 0.00 86 1015.5
20260508100813 61 125 0.0 0.0 0.00 0.00 0.00 86 1015.3
20260508100311 61 124 0.0 0.0 0.00 0.00 0.00 86 1015.6
20260508095806 61 121 0.0 0.0 0.00 0.00 0.00 86 1015.7
20260508095306 61 125 0.0 0.0 0.00 0.00 0.00 86 1015.8
20260508094801 61 130 0.0 0.0 0.00 0.00 0.00 85 1015.9
20260508094258 61 109 0.0 0.0 0.00 0.00 0.00 86 1015.7
20260508093755 61 115 0.0 0.0 0.00 0.00 0.00 85 1015.9
20260508093253 61 131 0.0 0.0 0.00 0.00 0.00 85 1015.8
20260508092749 61 123 0.0 0.0 0.00 0.00 0.00 85 1015.8
20260508092248 61 123 0.0 0.0 0.00 0.00 0.00 85 1015.6
20260508091746 61 122 0.0 0.0 0.00 0.00 0.00 84 1015.9
20260508091242 61 123 0.0 0.0 0.00 0.00 0.00 84 1015.8
20260508090740 62 121 0.0 0.0 0.00 0.00 0.00 84 1015.9
20260508090238 62 129 0.0 0.0 0.00 0.00 0.00 84 1016.2
20260508085733 62 133 0.0 1.0 0.00 0.00 0.00 83 1015.6
20260508085231 62 130 0.0 1.0 0.00 0.00 0.00 83 1015.6
20260508084726 62 121 0.0 1.0 0.00 0.00 0.00 83 1016.0
20260508084224 62 140 1.0 1.0 0.00 0.00 0.00 83 1015.9
20260508083721 62 131 0.0 1.0 0.00 0.00 0.00 82 1015.9
20260508083219 62 127 0.0 0.0 0.00 0.00 0.00 82 1015.8
20260508082714 62 136 1.0 1.0 0.00 0.00 0.00 83 1015.7
20260508082212 62 146 0.0 1.0 0.00 0.00 0.00 83 1016.0
20260508081709 62 131 0.0 1.0 0.00 0.00 0.00 82 1016.0
20260508081205 62 128 0.0 1.0 0.00 0.00 0.00 81 1015.9
20260508080702 62 129 0.0 0.0 0.00 0.00 0.00 81 1016.2
20260508080201 62 118 0.0 0.0 0.00 0.00 0.00 82 1016.3
20260508075657 62 101 1.0 1.0 0.00 0.00 0.00 82 1016.3
20260508075154 62 118 0.0 0.0 0.00 0.00 0.00 83 1016.8
20260508074651 62 111 0.0 0.0 0.00 0.00 0.00 83 1016.7
20260508074148 62 119 0.0 0.0 0.00 0.00 0.00 82 1016.9
20260508073645 62 119 0.0 0.0 0.00 0.00 0.00 82 1017.0
20260508073143 62 129 0.0 0.0 0.00 0.00 0.00 81 1016.9
20260508072639 63 111 0.0 2.0 0.00 0.00 0.00 81 1017.0
20260508072136 63 58 1.0 1.0 0.00 0.00 0.00 81 1016.9
20260508071633 63 63 0.0 1.0 0.00 0.00 0.00 80 1016.8
20260508071132 63 87 1.0 2.0 0.00 0.00 0.00 78 1017.1
20260508070629 63 114 0.0 1.0 0.00 0.00 0.00 79 1016.9
20260508070128 62 99 1.0 1.0 0.00 0.00 0.00 80 1016.9
20260508065624 62 130 0.0 0.0 0.00 0.00 0.00 80 1016.9
20260508065122 62 130 0.0 0.0 0.00 0.00 0.00 80 1017.0
20260508064620 62 123 0.0 0.0 0.00 0.00 0.00 80 1016.8
20260508064118 62 128 0.0 0.0 0.00 0.00 0.00 79 1016.9
20260508063615 62 115 0.0 0.0 0.00 0.00 0.00 80 1016.8
20260508063113 62 131 0.0 0.0 0.00 0.00 0.00 79 1016.9
20260508062610 62 119 0.0 1.0 0.00 0.00 0.00 79 1016.9
20260508062106 62 120 0.0 0.0 0.00 0.00 0.00 78 1017.1
20260508061604 62 134 0.0 0.0 0.00 0.00 0.00 78 1017.0
20260508061101 62 122 0.0 1.0 0.00 0.00 0.00 78 1017.1
20260508060557 62 122 0.0 0.0 0.00 0.00 0.00 78 1017.0
20260508060055 62 133 0.0 0.0 0.00 0.00 0.00 76 1017.4
20260508055551 62 127 0.0 0.0 0.00 0.00 0.00 77 1017.3
20260508055048 62 126 0.0 0.0 0.00 0.00 0.00 78 1017.3
20260508054544 62 127 0.0 0.0 0.00 0.00 0.00 78 1017.5
20260508054041 62 131 0.0 0.0 0.00 0.00 0.00 77 1017.2
20260508053538 62 127 0.0 0.0 0.00 0.00 0.00 77 1017.3
20260508053037 62 128 0.0 0.0 0.00 0.00 0.00 78 1017.5
20260508052533 62 136 0.0 0.0 0.00 0.00 0.00 78 1017.4
20260508052030 62 126 0.0 0.0 0.00 0.00 0.00 78 1017.4
20260508051526 62 124 0.0 0.0 0.00 0.00 0.00 78 1017.2
20260508051021 62 120 0.0 0.0 0.00 0.00 0.00 77 1017.4
20260508050518 62 125 0.0 0.0 0.00 0.00 0.00 77 1017.4
20260508050016 62 123 0.0 0.0 0.00 0.00 0.00 76 1017.4
20260508045512 62 121 0.0 0.0 0.00 0.00 0.00 76 1017.3
20260508045010 62 120 0.0 0.0 0.00 0.00 0.00 76 1017.3
20260508044507 62 132 0.0 0.0 0.00 0.00 0.00 75 1017.3
20260508044002 62 127 0.0 0.0 0.00 0.00 0.00 75 1017.3
20260508043459 62 125 0.0 0.0 0.00 0.00 0.00 76 1017.1
20260508042955 63 120 0.0 0.0 0.00 0.00 0.00 74 1017.2
20260508042453 63 120 0.0 0.0 0.00 0.00 0.00 75 1016.9
20260508041950 62 124 0.0 0.0 0.00 0.00 0.00 74 1017.2
20260508041447 63 125 0.0 0.0 0.00 0.00 0.00 73 1017.3
20260508040943 63 126 0.0 0.0 0.00 0.00 0.00 73 1017.2
20260508040441 63 133 0.0 1.0 0.00 0.00 0.00 73 1017.3
20260508035938 63 125 0.0 0.0 0.00 0.00 0.00 73 1017.0
20260508035435 63 125 0.0 0.0 0.00 0.00 0.00 72 1017.0
20260508034932 63 128 0.0 0.0 0.00 0.00 0.00 73 1017.1
20260508034429 63 141 0.0 0.0 0.00 0.00 0.00 74 1016.9
20260508033925 63 125 0.0 0.0 0.00 0.00 0.00 73 1016.9
20260508033424 63 123 0.0 0.0 0.00 0.00 0.00 74 1017.0
20260508032921 63 128 0.0 0.0 0.00 0.00 0.00 72 1016.9
20260508032418 64 134 0.0 0.0 0.00 0.00 0.00 73 1016.7
20260508031915 63 133 0.0 0.0 0.00 0.00 0.00 72 1016.7
20260508031413 63 157 1.0 1.0 0.00 0.00 0.00 73 1016.4
20260508030908 63 135 0.0 0.0 0.00 0.00 0.00 73 1016.4
20260508030405 63 124 0.0 0.0 0.00 0.00 0.00 73 1016.5
20260508025903 63 124 0.0 0.0 0.00 0.00 0.00 72 1016.5
20260508025359 63 109 0.0 0.0 0.00 0.00 0.00 73 1016.4
20260508024856 63 117 0.0 0.0 0.00 0.00 0.00 71 1016.5
20260508024353 64 119 0.0 0.0 0.00 0.00 0.00 71 1016.4
20260508023849 64 124 0.0 0.0 0.00 0.00 0.00 71 1016.3
20260508023346 64 118 0.0 0.0 0.00 0.00 0.00 71 1016.3
20260508022843 64 114 0.0 0.0 0.00 0.00 0.00 70 1016.2
20260508022338 64 122 0.0 0.0 0.00 0.00 0.00 70 1016.3
20260508021836 64 107 0.0 1.0 0.00 0.00 0.00 70 1016.4
20260508021332 64 131 0.0 1.0 0.00 0.00 0.00 69 1016.5
20260508020828 65 140 0.0 0.0 0.00 0.00 0.00 69 1016.2
20260508020326 65 123 0.0 0.0 0.00 0.00 0.00 68 1016.2
20260508015823 65 116 0.0 0.0 0.00 0.00 0.00 68 1016.1
20260508015320 65 119 0.0 0.0 0.00 0.00 0.00 68 1016.2
20260508014817 65 123 0.0 0.0 0.00 0.00 0.00 68 1016.4
20260508014314 65 125 0.0 0.0 0.00 0.00 0.00 67 1016.2
20260508013809 65 130 0.0 1.0 0.00 0.00 0.00 67 1016.2
20260508013306 65 129 0.0 1.0 0.00 0.00 0.00 68 1016.2
20260508012803 66 121 0.0 0.0 0.00 0.00 0.00 69 1016.3
20260508012301 66 128 0.0 1.0 0.00 0.00 0.00 68 1016.2
20260508011758 66 126 0.0 1.0 0.00 0.00 0.00 68 1016.2
20260508011256 66 113 0.0 1.0 0.00 0.00 0.00 68 1016.0
20260508010752 66 123 0.0 0.0 0.00 0.00 0.00 68 1016.1
20260508010250 66 123 0.0 0.0 0.00 0.00 0.00 67 1016.0
20260508005747 66 104 0.0 1.0 0.00 0.00 0.00 67 1016.1
20260508005244 67 121 0.0 2.0 0.00 0.00 0.00 66 1016.1
20260508004739 67 121 0.0 1.0 0.00 0.00 0.00 66 1016.3
20260508004236 67 121 0.0 0.0 0.00 0.00 0.00 65 1016.1
20260508003733 67 121 0.0 1.0 0.00 0.00 0.00 65 1016.0
20260508003230 67 81 1.0 1.0 0.00 0.00 0.00 65 1016.1
20260508002727 68 126 0.0 1.0 0.00 0.00 0.00 64 1015.8
20260508002224 68 99 1.0 1.0 0.00 0.00 0.00 64 1016.0
20260508001720 68 130 0.0 0.0 0.00 0.00 0.00 64 1016.3
20260508001215 68 130 0.0 2.0 0.00 0.00 0.00 63 1016.4
20260508000712 68 137 1.0 2.0 0.00 0.00 0.00 63 1016.3
20260508000212 68 123 0.0 1.0 0.00 0.00 0.00 64 1016.2
20260507235705 68 122 1.0 1.0 0.00 0.00 0.00 63 1016.3
20260507235203 69 125 0.0 0.0 0.00 0.00 0.00 64 1016.2
20260507234700 69 119 0.0 1.0 0.00 0.00 0.00 62 1016.3
20260507234156 69 142 0.0 1.0 0.00 0.00 0.00 61 1016.2
20260507233653 69 119 0.0 2.0 0.00 0.00 0.00 60 1016.3
20260507233151 69 118 0.0 1.0 0.00 0.00 0.00 59 1016.4
20260507232648 69 142 1.0 2.0 0.00 0.00 0.00 60 1016.1
20260507232145 69 158 0.0 1.0 0.00 0.00 0.00 60 1016.4
20260507231641 69 123 2.0 2.0 0.00 0.00 0.00 60 1016.3
20260507231139 69 116 0.0 2.0 0.00 0.00 0.00 61 1016.3
20260507230635 69 120 0.0 0.0 0.00 0.00 0.00 61 1016.3
20260507230132 69 107 0.0 1.0 0.00 0.00 0.00 61 1016.4
20260507225626 69 129 1.0 3.0 0.00 0.00 0.00 60 1016.5
20260507225123 69 132 2.0 2.0 0.00 0.00 0.00 62 1016.3
20260507224618 70 131 0.0 2.0 0.00 0.00 0.00 62 1016.5
20260507224115 70 98 0.0 1.0 0.00 0.00 0.00 60 1016.5
20260507223612 71 130 1.0 1.0 0.00 0.00 0.00 59 1016.4
20260507223109 71 140 1.0 2.0 0.00 0.00 0.00 57 1016.5
20260507222606 71 113 0.0 1.0 0.00 0.00 0.00 56 1016.6
20260507222102 71 129 0.0 1.0 0.00 0.00 0.00 56 1016.6
20260507221558 71 116 0.0 1.0 0.00 0.00 0.00 57 1016.6
20260507221055 71 109 0.0 1.0 0.00 0.00 0.00 52 1016.5
20260507220552 72 115 0.0 0.0 0.00 0.00 0.00 52 1016.6
20260507220050 72 118 0.0 0.0 0.00 0.00 0.00 55 1016.5
20260507215546 72 122 0.0 0.0 0.00 0.00 0.00 51 1016.6
20260507215044 72 115 0.0 0.0 0.00 0.00 0.00 50 1016.6
20260507214541 72 93 1.0 1.0 0.00 0.00 0.00 49 1016.7
20260507214037 72 78 1.0 1.0 0.00 0.00 0.00 48 1016.7
20260507213533 72 100 1.0 1.0 0.00 0.00 0.00 48 1016.8
20260507213031 72 79 1.0 1.0 0.00 0.00 0.00 49 1016.6
20260507212526 72 114 0.0 0.0 0.00 0.00 0.00 50 1016.9
20260507212023 72 121 0.0 1.0 0.00 0.00 0.00 53 1017.2
20260507211520 72 116 0.0 1.0 0.00 0.00 0.00 49 1017.1
20260507211016 72 123 0.0 1.0 0.00 0.00 0.00 50 1017.4
20260507210514 72 126 0.0 0.0 0.00 0.00 0.00 49 1017.4
20260507210010 72 115 0.0 1.0 0.00 0.00 0.00 51 1017.5
20260507205507 72 117 0.0 1.0 0.00 0.00 0.00 50 1017.8
20260507205003 72 110 0.0 2.0 0.00 0.00 0.00 49 1017.6
20260507204459 72 79 1.0 1.0 0.00 0.00 0.00 49 1017.5
20260507203957 71 70 1.0 2.0 0.00 0.00 0.00 50 1017.5
20260507203455 72 307 2.0 2.0 0.00 0.00 0.00 50 1017.3
20260507202951 71 118 0.0 1.0 0.00 0.00 0.00 52 1017.4
20260507202447 71 32 2.0 2.0 0.00 0.00 0.00 52 1017.2
20260507201943 71 88 2.0 7.0 0.00 0.00 0.00 52 1017.2
20260507201438 71 112 1.0 2.0 0.00 0.00 0.00 52 1017.2
20260507200936 71 359 2.0 3.0 0.00 0.00 0.00 52 1017.3
20260507200431 71 71 2.0 5.0 0.00 0.00 0.00 52 1017.4
20260507195927 72 83 2.0 3.0 0.00 0.00 0.00 51 1017.6
20260507195425 72 149 1.0 1.0 0.00 0.00 0.00 48 1017.8
20260507194922 72 117 1.0 1.0 0.00 0.00 0.00 49 1017.9
20260507194418 71 82 1.0 3.0 0.00 0.00 0.00 49 1018.0
20260507193915 71 98 1.0 2.0 0.00 0.00 0.00 49 1018.1
20260507193412 70 63 1.0 3.0 0.00 0.00 0.00 51 1018.0
20260507192909 71 81 3.0 5.0 0.00 0.00 0.00 49 1018.3
20260507192405 71 66 3.0 5.0 0.00 0.00 0.00 50 1018.5
20260507191902 71 121 2.0 3.0 0.00 0.00 0.00 49 1018.6
20260507191358 71 92 1.0 3.0 0.00 0.00 0.00 51 1018.6
20260507190854 72 171 2.0 2.0 0.00 0.00 0.00 49 1018.8
20260507190353 71 64 1.0 3.0 0.00 0.00 0.00 49 1019.0
20260507185851 71 64 2.0 6.0 0.00 0.00 0.00 50 1018.8
20260507185348 71 53 3.0 8.0 0.00 0.00 0.00 50 1018.8
20260507184845 71 165 3.0 8.0 0.00 0.00 0.00 48 1018.7
20260507184343 71 71 1.0 7.0 0.00 0.00 0.00 49 1018.8
20260507183839 72 9 4.0 8.0 0.00 0.00 0.00 49 1018.9
20260507183337 71 100 3.0 10.0 0.00 0.00 0.00 48 1018.7
20260507182834 71 169 2.0 7.0 0.00 0.00 0.00 51 1018.7
20260507182330 71 73 3.0 7.0 0.00 0.00 0.00 51 1018.9
20260507181826 71 17 5.0 9.0 0.00 0.00 0.00 48 1018.8
20260507181322 70 47 4.0 7.0 0.00 0.00 0.00 49 1019.0
20260507180819 70 59 3.0 6.0 0.00 0.00 0.00 51 1018.9
20260507180316 71 57 3.0 8.0 0.00 0.00 0.00 51 1019.0
20260507175811 70 4 4.0 8.0 0.00 0.00 0.00 51 1019.0
20260507175309 69 66 1.0 5.0 0.00 0.00 0.00 55 1019.2
20260507174806 69 338 6.0 7.0 0.00 0.00 0.00 52 1019.3
20260507174304 70 71 3.0 7.0 0.00 0.00 0.00 53 1019.3
20260507173801 69 237 1.0 3.0 0.00 0.00 0.00 54 1019.5
20260507173258 69 41 6.0 9.0 0.00 0.00 0.00 55 1019.6
20260507172754 68 72 2.0 7.0 0.00 0.00 0.00 57 1019.5
20260507172251 68 72 0.0 5.0 0.00 0.00 0.00 60 1019.6
20260507171747 68 20 5.0 9.0 0.00 0.00 0.00 58 1019.8
20260507171244 68 69 3.0 7.0 0.00 0.00 0.00 58 1019.7
20260507170741 68 127 1.0 6.0 0.00 0.00 0.00 61 1020.1
20260507170238 67 49 3.0 6.0 0.00 0.00 0.00 61 1020.2
20260507165733 67 98 2.0 3.0 0.00 0.00 0.00 59 1020.5
20260507165230 67 58 3.0 7.0 0.00 0.00 0.00 62 1020.7
20260507164726 68 69 2.0 3.0 0.00 0.00 0.00 60 1020.7
20260507164223 67 56 1.0 6.0 0.00 0.00 0.00 62 1020.9
20260507163720 67 77 2.0 5.0 0.00 0.00 0.00 60 1020.9